TimeEDT,TemperatureF,Dew PointF,Humidity,Sea Level PressureIn,VisibilityMPH,Wind Direction,Wind SpeedMPH,Gust SpeedMPH,PrecipitationIn,Events,Conditions,WindDirDegrees,DateUTC
12:00 AM,44.1,34.9,70,30.19,-9999.0,East,3.5,-,N/A,,Unknown,100,2013-04-23 04:00:00
1:00 AM,44.8,37.0,74,30.18,-9999.0,SE,4.6,-,N/A,,Unknown,130,2013-04-23 05:00:00
2:00 AM,46,38,63,30.17,,SE,5.8,,,,,140,2013-04-23 06:00:00
2:00 AM,45.7,37.6,73,30.17,-9999.0,SE,5.8,-,N/A,,Unknown,140,2013-04-23 06:00:00
3:00 AM,47.5,36.0,64,30.14,-9999.0,SSE,8.1,-,N/A,,Unknown,150,2013-04-23 07:00:00
4:00 AM,48.0,33.6,57,30.14,-9999.0,SSE,9.2,-,N/A,,Unknown,150,2013-04-23 08:00:00
5:00 AM,46.8,33.4,60,30.12,-9999.0,SSE,11.5,-,N/A,,Unknown,160,2013-04-23 09:00:00
6:00 AM,46.2,33.6,61,30.11,-9999.0,SSE,11.5,-,N/A,,Unknown,150,2013-04-23 10:00:00
7:00 AM,46.0,34.0,63,30.10,-9999.0,SSE,10.4,-,N/A,,Unknown,150,2013-04-23 11:00:00
8:00 AM,47,35,53,30.11,,SSE,11.5,,,,,160,2013-04-23 12:00:00
8:00 AM,47.1,35.4,64,30.11,-9999.0,SSE,11.5,-,N/A,,Unknown,160,2013-04-23 12:00:00
9:00 AM,48.9,37.0,64,30.11,-9999.0,SSE,12.7,-,N/A,,Unknown,160,2013-04-23 13:00:00
10:00 AM,51.4,37.0,58,30.09,-9999.0,SSE,11.5,-,N/A,,Unknown,160,2013-04-23 14:00:00
11:00 AM,56.3,37.6,50,30.08,-9999.0,South,13.8,-,N/A,,Unknown,170,2013-04-23 15:00:00
12:00 PM,60.3,40.3,48,30.05,-9999.0,South,11.5,-,N/A,,Unknown,170,2013-04-23 16:00:00
1:00 PM,62.8,40.3,44,30.03,-9999.0,South,13.8,-,N/A,,Unknown,180,2013-04-23 17:00:00
2:00 PM,63,42,34,29.99,,South,11.5,,,,,170,2013-04-23 18:00:00
2:00 PM,63.0,41.5,45,29.99,-9999.0,South,11.5,-,N/A,,Unknown,170,2013-04-23 18:00:00
3:00 PM,66.6,41.9,41,29.95,-9999.0,SSE,11.5,-,N/A,,Unknown,160,2013-04-23 19:00:00
4:00 PM,65.7,42.6,43,29.93,-9999.0,South,12.7,-,N/A,,Unknown,180,2013-04-23 20:00:00
5:00 PM,63.5,42.8,47,29.90,-9999.0,South,11.5,-,N/A,,Unknown,190,2013-04-23 21:00:00
6:00 PM,62.8,43.7,50,29.88,-9999.0,South,13.8,-,N/A,,Unknown,190,2013-04-23 22:00:00
7:00 PM,60.8,43.9,54,29.88,-9999.0,South,10.4,-,N/A,,Unknown,190,2013-04-23 23:00:00
8:00 PM,56,52,80,29.90,,WSW,10.4,,,,,250,2013-04-24 00:00:00
8:00 PM,55.9,51.6,85,29.90,-9999.0,WSW,10.4,-,0.03,,Unknown,250,2013-04-24 00:00:00
9:00 PM,55.2,53.6,94,29.90,-9999.0,WSW,3.5,-,0.06,,Unknown,250,2013-04-24 01:00:00
10:00 PM,54.9,53.8,96,29.87,-9999.0,SSE,3.5,-,0.03,,Unknown,160,2013-04-24 02:00:00
11:00 PM,54.1,53.2,97,29.84,-9999.0,SSE,2.3,-,0.01,,Unknown,150,2013-04-24 03:00:00